Time,TemperatureF,DewpointF,PressureIn,WindDirection,WindDirectionDegrees,WindSpeedMPH,WindSpeedGustMPH,Humidity,HourlyPrecipIn,Conditions,Clouds,dailyrainin,SoftwareType,DateUTC
2013-05-15 00:02:00,67.0,42.0,-100.00,NW,325,7.0,9.0,40,0.00,,,-99.99,,2013-05-15 05:02:00,
2013-05-15 00:12:00,67.0,42.0,-100.00,NNW,335,4.0,7.0,40,0.00,,,-99.99,,2013-05-15 05:12:00,
2013-05-15 00:22:00,67.0,42.0,-100.00,NW,325,9.0,10.0,40,0.00,,,-99.99,,2013-05-15 05:22:00,
2013-05-15 00:32:00,65.0,41.0,-100.00,NW,320,7.0,10.0,41,0.00,,,-99.99,,2013-05-15 05:32:00,
2013-05-15 00:42:00,65.0,41.0,-100.00,NW,325,6.0,11.0,41,0.00,,,-99.99,,2013-05-15 05:42:00,
2013-05-15 00:52:00,66.0,41.0,-100.00,NW,320,6.0,9.0,40,0.00,,,-99.99,,2013-05-15 05:52:00,
2013-05-15 01:02:00,65.0,40.0,-100.00,NW,305,4.0,6.0,40,0.00,,,-99.99,,2013-05-15 06:02:00,
2013-05-15 01:11:00,65.0,40.0,-100.00,WNW,295,11.0,15.0,39,0.00,,,-99.99,,2013-05-15 06:11:00,
2013-05-15 01:21:00,66.0,40.0,-100.00,NW,310,9.0,16.0,38,0.00,,,-99.99,,2013-05-15 06:21:00,
2013-05-15 01:32:00,63.0,39.0,-100.00,WNW,295,9.0,10.0,40,0.00,,,-99.99,,2013-05-15 06:32:00,
2013-05-15 01:42:00,64.0,40.0,-100.00,WNW,300,4.0,9.0,40,0.00,,,-99.99,,2013-05-15 06:42:00,
2013-05-15 01:51:00,63.0,39.0,-100.00,NW,310,5.0,7.0,41,0.00,,,-99.99,,2013-05-15 06:51:00,
2013-05-15 02:01:00,62.0,39.0,-100.00,WNW,295,5.0,7.0,43,0.00,,,-99.99,,2013-05-15 07:01:00,
2013-05-15 02:32:00,62.0,41.0,-100.00,NW,325,8.0,-999.0,45,0.00,,,-99.99,,2013-05-15 07:32:00,
2013-05-15 02:41:00,60.0,40.0,-100.00,NNW,330,9.0,12.0,48,0.00,,,-99.99,,2013-05-15 07:41:00,
2013-05-15 02:52:00,62.0,42.0,-100.00,NW,325,9.0,14.0,47,0.00,,,-99.99,,2013-05-15 07:52:00,
2013-05-15 03:02:00,61.0,42.0,-100.00,NW,320,9.0,10.0,48,0.00,,,-99.99,,2013-05-15 08:02:00,
2013-05-15 03:12:00,60.0,42.0,-100.00,NNW,330,9.0,12.0,51,0.00,,,-99.99,,2013-05-15 08:12:00,
2013-05-15 03:21:00,59.0,43.0,-100.00,NW,315,6.0,11.0,55,0.00,,,-99.99,,2013-05-15 08:21:00,
2013-05-15 03:32:00,58.0,44.0,-100.00,NW,320,8.0,10.0,58,0.00,,,-99.99,,2013-05-15 08:32:00,
2013-05-15 03:42:00,58.0,45.0,-100.00,NW,325,7.0,10.0,62,0.00,,,-99.99,,2013-05-15 08:42:00,
2013-05-15 03:52:00,58.0,46.0,-100.00,NW,320,7.0,11.0,63,0.00,,,-99.99,,2013-05-15 08:52:00,
2013-05-15 04:01:00,59.0,46.0,-100.00,NNW,330,6.0,9.0,63,0.00,,,-99.99,,2013-05-15 09:01:00,
2013-05-15 04:11:00,58.0,46.0,-100.00,NNW,330,6.0,7.0,63,0.00,,,-99.99,,2013-05-15 09:11:00,
2013-05-15 04:21:00,58.0,46.0,-100.00,NW,320,6.0,9.0,63,0.00,,,-99.99,,2013-05-15 09:21:00,
2013-05-15 04:33:00,58.0,46.0,-100.00,NW,325,8.0,12.0,65,0.00,,,-99.99,,2013-05-15 09:33:00,
2013-05-15 04:42:00,58.0,47.0,-100.00,NW,325,7.0,11.0,65,0.00,,,-99.99,,2013-05-15 09:42:00,
2013-05-15 04:53:00,58.0,47.0,-100.00,NW,325,6.0,12.0,65,0.00,,,-99.99,,2013-05-15 09:53:00,
2013-05-15 05:02:00,56.0,46.0,-100.00,NNW,330,6.0,11.0,68,0.00,,,-99.99,,2013-05-15 10:02:00,
2013-05-15 05:12:00,56.0,47.0,-100.00,NW,320,7.0,9.0,69,0.00,,,-99.99,,2013-05-15 10:12:00,
2013-05-15 05:22:00,56.0,47.0,-100.00,NW,320,7.0,11.0,69,0.00,,,-99.99,,2013-05-15 10:22:00,
2013-05-15 05:32:00,56.0,47.0,-100.00,NW,315,7.0,11.0,71,0.00,,,-99.99,,2013-05-15 10:32:00,
2013-05-15 05:42:00,56.0,47.0,-100.00,NW,325,9.0,12.0,72,0.00,,,-99.99,,2013-05-15 10:42:00,
2013-05-15 05:52:00,55.0,47.0,-100.00,NW,315,6.0,9.0,73,0.00,,,-99.99,,2013-05-15 10:52:00,
2013-05-15 06:08:00,54.0,47.0,-100.00,NW,320,7.0,9.0,76,0.00,,,-99.99,,2013-05-15 11:08:00,
2013-05-15 06:17:00,55.0,48.0,-100.00,NW,325,9.0,12.0,74,0.00,,,-99.99,,2013-05-15 11:17:00,
2013-05-15 06:26:00,56.0,48.0,-100.00,NNW,335,7.0,12.0,74,0.00,,,-99.99,,2013-05-15 11:26:00,
2013-05-15 06:36:00,56.0,48.0,-100.00,NNW,330,7.0,13.0,73,0.00,,,-99.99,,2013-05-15 11:36:00,
2013-05-15 06:47:00,56.0,48.0,-100.00,NNW,330,7.0,14.0,74,0.00,,,-99.99,,2013-05-15 11:47:00,
2013-05-15 06:55:00,57.0,48.0,-100.00,NNW,335,7.0,11.0,72,0.00,,,-99.99,,2013-05-15 11:55:00,
2013-05-15 07:07:00,57.0,48.0,-100.00,NW,325,9.0,12.0,71,0.00,,,-99.99,,2013-05-15 12:07:00,
2013-05-15 07:14:00,57.0,48.0,-100.00,NW,325,9.0,15.0,71,0.00,,,-99.99,,2013-05-15 12:14:00,
2013-05-15 07:54:00,59.0,49.0,-100.00,North,350,6.0,11.0,69,0.00,,,-99.99,,2013-05-15 12:54:00,
2013-05-15 08:16:00,60.0,49.0,-100.00,North,0,7.0,14.0,67,0.00,,,-99.99,,2013-05-15 13:16:00,
2013-05-15 08:26:00,60.0,49.0,-100.00,North,0,6.0,16.0,66,0.00,,,-99.99,,2013-05-15 13:26:00,
2013-05-15 08:35:00,61.0,49.0,-100.00,North,10,6.0,16.0,63,0.00,,,-99.99,,2013-05-15 13:35:00,
2013-05-15 08:46:00,62.0,49.0,-100.00,North,0,12.0,18.0,60,0.00,,,-99.99,,2013-05-15 13:46:00,
2013-05-15 08:55:00,63.0,48.0,-100.00,North,0,11.0,19.0,58,0.00,,,-99.99,,2013-05-15 13:55:00,
2013-05-15 09:05:00,63.0,48.0,-100.00,North,10,12.0,22.0,57,0.00,,,-99.99,,2013-05-15 14:05:00,
2013-05-15 09:25:00,64.0,49.0,-100.00,North,0,11.0,17.0,57,0.00,,,-99.99,,2013-05-15 14:25:00,
2013-05-15 09:36:00,64.0,48.0,-100.00,North,0,11.0,17.0,55,0.00,,,-99.99,,2013-05-15 14:36:00,
2013-05-15 09:46:00,65.0,48.0,-100.00,North,0,5.0,15.0,54,0.00,,,-99.99,,2013-05-15 14:46:00,
2013-05-15 09:52:00,66.0,49.0,-100.00,NE,45,7.0,10.0,54,0.00,,,-99.99,,2013-05-15 14:52:00,
2013-05-15 10:08:00,66.0,49.0,-100.00,North,10,5.0,10.0,52,0.00,,,-99.99,,2013-05-15 15:08:00,
2013-05-15 10:15:00,67.0,48.0,-100.00,North,0,8.0,12.0,51,0.00,,,-99.99,,2013-05-15 15:15:00,
2013-05-15 10:27:00,68.0,49.0,-100.00,North,0,7.0,13.0,50,0.00,,,-99.99,,2013-05-15 15:27:00,
2013-05-15 10:36:00,68.0,49.0,-100.00,North,0,7.0,13.0,50,0.00,,,-99.99,,2013-05-15 15:36:00,
2013-05-15 10:47:00,69.0,47.0,-100.00,NNE,30,7.0,12.0,47,0.00,,,-99.99,,2013-05-15 15:47:00,
2013-05-15 11:08:00,70.0,47.0,-100.00,North,5,9.0,14.0,43,0.00,,,-99.99,,2013-05-15 16:08:00,
2013-05-15 11:21:00,70.0,47.0,-100.00,North,10,6.0,11.0,43,0.00,,,-99.99,,2013-05-15 16:21:00,
2013-05-15 11:27:00,71.0,48.0,-100.00,NNE,15,8.0,14.0,43,0.00,,,-99.99,,2013-05-15 16:27:00,
2013-05-15 11:47:00,72.0,47.0,-100.00,NE,35,6.0,12.0,40,0.00,,,-99.99,,2013-05-15 16:47:00,
2013-05-15 11:53:00,72.0,47.0,-100.00,NE,35,6.0,12.0,40,0.00,,,-99.99,,2013-05-15 16:53:00,
2013-05-15 12:08:00,71.0,45.0,-100.00,North,10,9.0,16.0,39,0.00,,,-99.99,,2013-05-15 17:08:00,
2013-05-15 12:18:00,71.0,44.0,-100.00,North,0,7.0,18.0,38,0.00,,,-99.99,,2013-05-15 17:18:00,
2013-05-15 12:26:00,71.0,44.0,-100.00,North,0,7.0,18.0,38,0.00,,,-99.99,,2013-05-15 17:26:00,
2013-05-15 12:36:00,73.0,46.0,-100.00,NE,50,6.0,12.0,37,0.00,,,-99.99,,2013-05-15 17:36:00,
2013-05-15 12:45:00,73.0,44.0,-100.00,NE,45,5.0,13.0,36,0.00,,,-99.99,,2013-05-15 17:45:00,
2013-05-15 12:55:00,73.0,44.0,-100.00,NE,45,5.0,13.0,36,0.00,,,-99.99,,2013-05-15 17:55:00,
2013-05-15 13:05:00,74.0,45.0,-100.00,NNE,30,7.0,12.0,36,0.00,,,-99.99,,2013-05-15 18:05:00,
2013-05-15 13:15:00,74.0,46.0,-100.00,ENE,65,4.0,11.0,35,0.00,,,-99.99,,2013-05-15 18:15:00,
2013-05-15 13:26:00,74.0,46.0,-100.00,ENE,65,4.0,11.0,35,0.00,,,-99.99,,2013-05-15 18:26:00,
2013-05-15 13:36:00,76.0,46.0,-100.00,NE,35,4.0,9.0,35,0.00,,,-99.99,,2013-05-15 18:36:00,
2013-05-15 13:46:00,76.0,46.0,-100.00,NE,35,4.0,9.0,35,0.00,,,-99.99,,2013-05-15 18:46:00,
2013-05-15 13:54:00,74.0,45.0,-100.00,North,0,7.0,11.0,35,0.00,,,-99.99,,2013-05-15 18:54:00,
2013-05-15 14:08:00,74.0,45.0,-100.00,North,0,7.0,11.0,35,0.00,,,-99.99,,2013-05-15 19:08:00,
2013-05-15 14:15:00,75.0,46.0,-100.00,NNE,20,7.0,12.0,35,0.00,,,-99.99,,2013-05-15 19:15:00,
2013-05-15 14:29:00,75.0,46.0,-100.00,NE,55,7.0,12.0,35,0.00,,,-99.99,,2013-05-15 19:29:00,
2013-05-15 14:37:00,75.0,46.0,-100.00,NE,55,7.0,12.0,35,0.00,,,-99.99,,2013-05-15 19:37:00,
2013-05-15 14:44:00,74.0,45.0,-100.00,North,0,6.0,11.0,36,0.00,,,-99.99,,2013-05-15 19:44:00,
2013-05-15 14:54:00,74.0,45.0,-100.00,North,0,6.0,11.0,36,0.00,,,-99.99,,2013-05-15 19:54:00,
2013-05-15 15:07:00,77.0,46.0,-100.00,NW,315,4.0,8.0,34,0.00,,,-99.99,,2013-05-15 20:07:00,
2013-05-15 15:17:00,77.0,46.0,-100.00,NW,315,4.0,8.0,34,0.00,,,-99.99,,2013-05-15 20:17:00,
2013-05-15 15:37:00,75.0,46.0,-100.00,NE,35,3.0,8.0,35,0.00,,,-99.99,,2013-05-15 20:37:00,
2013-05-15 15:46:00,74.0,45.0,-100.00,North,0,6.0,9.0,36,0.00,,,-99.99,,2013-05-15 20:46:00,
2013-05-15 15:57:00,74.0,45.0,-100.00,North,0,6.0,9.0,36,0.00,,,-99.99,,2013-05-15 20:57:00,
2013-05-15 16:07:00,74.0,46.0,-100.00,North,5,5.0,7.0,37,0.00,,,-99.99,,2013-05-15 21:07:00,
2013-05-15 16:19:00,73.0,46.0,-100.00,NNE,20,9.0,16.0,38,0.00,,,-99.99,,2013-05-15 21:19:00,
2013-05-15 16:26:00,73.0,47.0,-100.00,NNE,25,6.0,11.0,39,0.00,,,-99.99,,2013-05-15 21:26:00,
2013-05-15 16:49:00,73.0,47.0,-100.00,North,0,6.0,11.0,39,0.00,,,-99.99,,2013-05-15 21:49:00,
2013-05-15 16:56:00,73.0,47.0,-100.00,North,0,6.0,11.0,39,0.00,,,-99.99,,2013-05-15 21:56:00,
2013-05-15 17:08:00,72.0,47.0,-100.00,North,0,7.0,14.0,39,0.00,,,-99.99,,2013-05-15 22:08:00,
2013-05-15 17:17:00,72.0,47.0,-100.00,North,0,7.0,14.0,39,0.00,,,-99.99,,2013-05-15 22:17:00,
2013-05-15 17:27:00,74.0,48.0,-100.00,NE,50,3.0,12.0,39,0.00,,,-99.99,,2013-05-15 22:27:00,
2013-05-15 17:47:00,74.0,47.0,-100.00,North,0,6.0,11.0,38,0.00,,,-99.99,,2013-05-15 22:47:00,
2013-05-15 17:59:00,74.0,47.0,-100.00,North,0,6.0,11.0,38,0.00,,,-99.99,,2013-05-15 22:59:00,
2013-05-15 18:07:00,74.0,47.0,-100.00,North,0,6.0,11.0,38,0.00,,,-99.99,,2013-05-15 23:07:00,
2013-05-15 18:15:00,74.0,47.0,-100.00,North,0,4.0,10.0,38,0.00,,,-99.99,,2013-05-15 23:15:00,
2013-05-15 18:27:00,74.0,47.0,-100.00,North,0,4.0,10.0,38,0.00,,,-99.99,,2013-05-15 23:27:00,
2013-05-15 18:38:00,74.0,47.0,-100.00,North,0,4.0,10.0,38,0.00,,,-99.99,,2013-05-15 23:38:00,
2013-05-15 18:48:00,74.0,47.0,-100.00,NW,325,6.0,10.0,38,0.00,,,-99.99,,2013-05-15 23:48:00,
2013-05-15 18:54:00,74.0,47.0,-100.00,NW,325,6.0,10.0,38,0.00,,,-99.99,,2013-05-15 23:54:00,
2013-05-15 19:05:00,73.0,45.0,-100.00,North,0,2.0,7.0,37,0.00,,,-99.99,,2013-05-16 00:05:00,
2013-05-15 19:16:00,72.0,45.0,-100.00,North,10,2.0,7.0,38,0.00,,,-99.99,,2013-05-16 00:16:00,
2013-05-15 19:25:00,71.0,45.0,-100.00,NNW,340,3.0,6.0,39,0.00,,,-99.99,,2013-05-16 00:25:00,
2013-05-15 19:35:00,71.0,45.0,-100.00,NNW,340,3.0,6.0,39,0.00,,,-99.99,,2013-05-16 00:35:00,
2013-05-15 19:48:00,71.0,45.0,-100.00,North,0,2.0,4.0,39,0.00,,,-99.99,,2013-05-16 00:48:00,
2013-05-15 19:54:00,70.0,46.0,-100.00,NNE,30,2.0,4.0,42,0.00,,,-99.99,,2013-05-16 00:54:00,
2013-05-15 20:06:00,70.0,46.0,-100.00,NNE,30,2.0,4.0,42,0.00,,,-99.99,,2013-05-16 01:06:00,
2013-05-15 20:15:00,69.0,45.0,-100.00,NNE,15,0.0,2.0,41,0.00,,,-99.99,,2013-05-16 01:15:00,
2013-05-15 20:27:00,69.0,45.0,-100.00,NNE,15,0.0,2.0,41,0.00,,,-99.99,,2013-05-16 01:27:00,
2013-05-15 20:35:00,69.0,45.0,-100.00,NNE,15,0.0,2.0,41,0.00,,,-99.99,,2013-05-16 01:35:00,
2013-05-15 20:48:00,66.0,47.0,-100.00,South,185,1.0,1.0,50,0.00,,,-99.99,,2013-05-16 01:48:00,
2013-05-15 21:07:00,64.0,48.0,-100.00,South,170,0.0,4.0,55,0.00,,,-99.99,,2013-05-16 02:07:00,
2013-05-15 21:15:00,64.0,48.0,-100.00,South,180,1.0,1.0,56,0.00,,,-99.99,,2013-05-16 02:15:00,
2013-05-15 21:26:00,64.0,49.0,-100.00,SE,145,1.0,1.0,58,0.00,,,-99.99,,2013-05-16 02:26:00,
2013-05-15 21:37:00,64.0,49.0,-100.00,SE,145,1.0,1.0,58,0.00,,,-99.99,,2013-05-16 02:37:00,
2013-05-15 21:46:00,64.0,49.0,-100.00,SE,145,1.0,1.0,58,0.00,,,-99.99,,2013-05-16 02:46:00,
2013-05-15 21:53:00,64.0,49.0,-100.00,SE,145,1.0,1.0,58,0.00,,,-99.99,,2013-05-16 02:53:00,
2013-05-15 22:07:00,61.0,53.0,-100.00,SSE,155,0.0,0.0,74,0.00,,,-99.99,,2013-05-16 03:07:00,
2013-05-15 22:16:00,60.0,52.0,-100.00,SE,145,0.0,1.0,74,0.00,,,-99.99,,2013-05-16 03:16:00,
2013-05-15 22:24:00,60.0,53.0,-100.00,SE,140,1.0,2.0,76,0.00,,,-99.99,,2013-05-16 03:24:00,
2013-05-15 22:36:00,60.0,53.0,-100.00,SE,140,1.0,2.0,76,0.00,,,-99.99,,2013-05-16 03:36:00,
2013-05-15 22:45:00,60.0,53.0,-100.00,SE,140,1.0,2.0,76,0.00,,,-99.99,,2013-05-16 03:45:00,
2013-05-15 22:54:00,58.0,52.0,-100.00,SSE,155,2.0,2.0,79,0.00,,,-99.99,,2013-05-16 03:54:00,
2013-05-15 23:02:00,58.0,52.0,-100.00,SSE,155,2.0,2.0,79,0.00,,,-99.99,,2013-05-16 04:02:00,
2013-05-15 23:12:00,56.0,51.0,-100.00,South,185,1.0,2.0,82,0.00,,,-99.99,,2013-05-16 04:12:00,
2013-05-15 23:23:00,56.0,51.0,-100.00,ENE,60,0.0,1.0,82,0.00,,,-99.99,,2013-05-16 04:23:00,
2013-05-15 23:33:00,56.0,51.0,-100.00,SSW,210,1.0,1.0,84,0.00,,,-99.99,,2013-05-16 04:33:00,
2013-05-15 23:42:00,55.0,50.0,-100.00,East,100,1.0,1.0,83,0.00,,,-99.99,,2013-05-16 04:42:00,
2013-05-15 23:52:00,55.0,51.0,-100.00,East,100,1.0,1.0,86,0.00,,,-99.99,,2013-05-16 04:52:00,